Bellingham, WA

1:17 AM PDT on May 25, 2017 (GMT -0700)
Bellingham International

Weather History for KBLI - March, 2013

Change the Weather History Date:

Tuesday, March 5, 2013

  Actual Average Record
Temperature  
Mean Temperature 44 °F 43 °F  
Max Temperature 50 °F 51 °F 64 °F (1965)
Min Temperature 38 °F 35 °F 11 °F (1955)
Degree Days  
Heating Degree Days 21 22  
Month to date heating degree days 86 114  
Cooling Degree Days 0 0  
Month to date cooling degree days 0 0  
Year to date cooling degree days 0 0  
Moisture  
Dew Point 30 °F    
Average Humidity 49    
Maximum Humidity 58    
Minimum Humidity 39    
Precipitation  
Precipitation T in 0.10 in 1.85 in (1972)
Month to date precipitation 0.52 0.53  
Year to date precipitation 3.84 8.22  
Sea Level Pressure  
Sea Level Pressure 29.86 in    
Wind  
Wind Speed 10 mph (NNE)    
Max Wind Speed 20 mph    
Max Gust Speed 26 mph    
Visibility 10 miles    
Events Rain    
T = Trace of Precipitation, MM = Missing Value Source: NWS Daily Summary

Daily Weather History Graph

Daily Weather History Graph

Search for Another Location

Airport or City:

Trip Planner

Search our weather history database for the weather conditions in past years. The results will help you decide how hot, cold, wet, or windy it might be!

Date:

Astronomy

Mar. 05, 2013 Rise Set
Actual Time 6:43 AM PST 6:00 PM PST
Civil Twilight 6:11 AM PST 6:32 PM PST
Nautical Twilight 5:35 AM PST 7:08 PM PST
Astronomical Twilight 4:58 AM PST 7:45 PM PST
Moon 2:23 AM PST (3/5) 11:22 AM PST (3/5)
Length of Visible Light 12h 20m
Length of Day
11h 17m
Last Quarter, 39% of the Moon is Illuminated
Mar 5
Last Quarter
Mar 11
New
Mar 19
First Quarter
Mar 27
Full
Apr 2
Last Quarter

Hourly Weather History & Observations

Time (PST) Temp. Windchill Dew Point Humidity Pressure Visibility Wind Dir Wind Speed Gust Speed Precip Events Conditions
12:53 AM 46.0 °F 40.2 °F 27.0 °F 47% 29.98 in 10.0 mi NNE 12.7 mph 21.9 mph N/A   Clear
1:53 AM 46.0 °F 40.2 °F 27.0 °F 47% 29.96 in 10.0 mi NNE 12.7 mph - N/A   Clear
2:53 AM 46.0 °F 40.2 °F 26.1 °F 46% 29.94 in 10.0 mi NNE 12.7 mph 21.9 mph N/A   Partly Cloudy
3:53 AM 46.0 °F 39.6 °F 26.1 °F 46% 29.92 in 10.0 mi NNE 15.0 mph 23.0 mph N/A   Clear
4:53 AM 46.4 °F 40.1 °F 24.8 °F 43% 29.88 in 10.0 mi NNE 15.0 mph 24.2 mph N/A   Clear
5:53 AM 46.9 °F - 25.0 °F 42% 29.89 in 10.0 mi NNE 17.3 mph 21.9 mph N/A   Overcast
6:53 AM 46.9 °F - 26.1 °F 44% 29.87 in 10.0 mi NNE 13.8 mph - N/A   Overcast
7:53 AM 48.0 °F - 25.0 °F 41% 29.87 in 10.0 mi NNE 15.0 mph 21.9 mph N/A   Overcast
8:53 AM 48.0 °F - 25.0 °F 41% 29.88 in 10.0 mi NNE 11.5 mph 23.0 mph N/A   Overcast
9:53 AM 50.0 °F - 26.1 °F 39% 29.90 in 10.0 mi NNE 11.5 mph 17.3 mph N/A   Overcast
10:53 AM 48.0 °F - 28.9 °F 48% 29.89 in 10.0 mi NNE 12.7 mph 19.6 mph N/A   Overcast
11:53 AM 46.9 °F - 28.0 °F 48% 29.87 in 10.0 mi NNE 13.8 mph 21.9 mph N/A   Overcast
12:53 PM 46.9 °F - 28.9 °F 50% 29.84 in 10.0 mi NNE 11.5 mph 20.7 mph N/A   Overcast
1:53 PM 48.0 °F - 32.0 °F 54% 29.82 in 10.0 mi NNE 13.8 mph 23.0 mph N/A   Overcast
2:53 PM 46.9 °F - 32.0 °F 56% 29.81 in 10.0 mi NNE 16.1 mph 23.0 mph N/A   Overcast
3:53 PM 46.9 °F - 32.0 °F 56% 29.82 in 10.0 mi North 9.2 mph 17.3 mph N/A   Overcast
4:53 PM 46.0 °F 43.1 °F 32.0 °F 58% 29.81 in 10.0 mi North 5.8 mph - 0.00 in   Overcast
5:53 PM 45.0 °F 42.6 °F 33.1 °F 63% 29.83 in 10.0 mi North 4.6 mph - 0.00 in Rain Light Rain
6:53 PM 44.1 °F - 35.1 °F 71% 29.83 in 10.0 mi Calm Calm - 0.00 in Rain Light Rain
7:53 PM 42.1 °F - 33.1 °F 70% 29.83 in 10.0 mi Calm Calm - 0.00 in Rain Light Rain
8:53 PM 41.0 °F - 37.9 °F 89% 29.82 in 10.0 mi Calm Calm - 0.00 in   Overcast
9:53 PM 41.0 °F - 39.0 °F 93% 29.82 in 10.0 mi Calm Calm - N/A   Overcast
10:53 PM 39.9 °F - 28.0 °F 63% 29.81 in 10.0 mi Calm Calm - N/A   Overcast
11:53 PM 37.9 °F 35.5 °F 35.1 °F 89% 29.78 in 10.0 mi NNW 3.5 mph - N/A   Mostly Cloudy